Regional Weather Roundup
Issued by NWS

Home | Current Version | Previous Version | Text Only | Print | Product List | Glossary Off
Versions: 1 2 3 4 5 6 7 8 9 10 11 12 13 14 15 16 17 18 19 20 21 22 23 24 25 26 27 28 29 30 31 32 33 34 35 36 37 38 39 40 41 42 43 44 45 46 47 48 49 50

000
ASUS43 KLOT 210204
RWRIL

ILLINOIS REGIONAL WEATHER ROUNDUP
NATIONAL WEATHER SERVICE CHICAGO/ROMEOVILLE IL
900 PM CDT FRI OCT 20 2017

NOTE: "FAIR" INDICATES FEW OR NO CLOUDS BELOW 12,000 FEET WITH NO
SIGNIFICANT WEATHER AND/OR OBSTRUCTIONS TO VISIBILITY.

* THESE STATIONS ARE NOT UNDER NWS QUALITY CONTROL. THEY ALSO MAY NOT
  REPORT WEATHER SUCH AS PRECIPITATION OR FOG.

ILZ001-002-007-009-015-016-024-210300-
NORTHWEST ILLINOIS

CITY           SKY/WX    TMP DP  RH WIND       PRES   REMARKS
MOLINE         CLOUDY    66  45  46 S10       29.97S
STERLING*      CLOUDY    64  47  53 VRB5        N/A
SAVANNA*       CLOUDY    65  46  50 S10       29.98S
$$

ILZ003-004-008-010-011-017-018-210300-
NORTH CENTRAL ILLINOIS

CITY           SKY/WX    TMP DP  RH WIND       PRES   REMARKS
ROCKFORD       CLOUDY    65  47  52 S12       30.01S
FREEPORT*      MOCLDY    63  47  57 S10       30.01R
ROCHELLE*      CLOUDY    64  47  55 S7        30.03R
DE KALB*       MOCLDY    63  48  58 S13       30.04S
PERU*          PTCLDY    65  44  47 S14G20    30.03S
$$

ILZ005-006-012>014-019>023-210300-
NORTHEAST ILLINOIS

CITY           SKY/WX    TMP DP  RH WIND       PRES   REMARKS
CHICAGO-OHARE  CLOUDY    66  49  54 S12       30.04S
CHICAGO-MIDWAY CLOUDY    70  49  47 S10       30.05S
AURORA         CLOUDY    66  48  52 S9        30.04S
LANSING*       PTCLDY    65  52  62 S12       30.08S
JOLIET*        CLOUDY    67  48  50 S7        30.06S
WAUKEGAN       CLOUDY    68  49  50 S10       30.02F
DUPAGE AIRPORT CLOUDY    65  49  56 S9        30.03F
KANKAKEE*      CLOUDY    65  48  53 S8        30.09S
WHEELING       PTCLDY    69  49  48 S13       30.05S
MORRIS*        CLOUDY    65  46  51 S10       30.04S
NORTHERLY ISL    N/A     68  48  48 SE10        N/A
$$

LMZ740>746-210300-
SOUTHERN LAKE MICHIGAN

STATION/POSITION SKY/WX   TEMP    WIND        PRES    VSBY  WAVE
                          AIR SEA DIR/SP/G                  HT/PER
                          (F)     (DEG/KT/KT) (MB)    (MI)  (FT/S)
SOUTHERN BUOY              65 61  160/ 14/ 16 1017.5          1/ 3
WILMETTE HARBOR            64 60  160/ 12/ 14   N/A           1/ 2
HARRISON CRIB              69     180/ 17/ 18   N/A
BURNHAM HARBOR             68     160/ 13       N/A
CALUMET HARBOR             69     160/  7/ 11 1017.3S
BURNS HARBOR               68     180/  9/ 14 1018.6F
MICHIGAN CITY              69     160/ 13/ 17   N/A
MICHIGAN CITY 6N           64 58  190/ 10/ 12   N/A           1
ST. JOSEPH                 63 59  190/  6/  8 1018.7F         1
$$

ILZ025>027-034>036-040-047-049-050-058-095>099-210300-
WEST-CENTRAL ILLINOIS

CITY           SKY/WX    TMP DP  RH WIND       PRES   REMARKS
QUINCY         CLOUDY    68  49  50 S9        29.98S
GALESBURG*     CLOUDY    71  56  59 SE8       30.00S
MACOMB*        CLOUDY    65  49  55 S15       30.02S
JACKSONVILLE*  MOCLDY    67  50  54 SE14G24   30.02F
PITTSFIELD*    CLOUDY    66  52  60 SE8       30.01S
$$

ILZ028>032-037-038-041>044-048-051>054-059>061-210300-
CENTRAL ILLINOIS

CITY           SKY/WX    TMP DP  RH WIND       PRES   REMARKS
PONTIAC        PTCLDY    64  49  59 S10G17    30.06S
BLOOMINGTON    CLOUDY    63  49  60 S15       30.07S
DECATUR        PTCLDY    65  49  56 S13       30.08S
PEORIA         MOCLDY    67  47  48 S16G31    30.03R
LINCOLN*       PTCLDY    62  50  66 S8        30.06R
SPRINGFIELD    MOCLDY    67  51  56 S13       30.06R
TAYLORVILLE    CLOUDY    61  49  65 S7        30.08R
$$

ILZ033-039-045-046-055>057-062-063-210300-
EAST-CENTRAL ILLINOIS

CITY           SKY/WX    TMP DP  RH WIND       PRES   REMARKS
CHAMPAIGN      CLEAR     63  48  58 S12       30.10S
DANVILLE*      PTCLDY    60  48  65 SE7       30.09S
RANTOUL*       PTCLDY    58  51  77 S5        30.10R
MATTOON        CLOUDY    63  51  65 S7        30.09F
PARIS*         PTCLDY    57  50  76 SE7       30.12F
$$

ILZ079-100>102-210300-
SOUTHWEST ILLINOIS

CITY           SKY/WX    TMP DP  RH WIND       PRES   REMARKS
ALTON          MOCLDY    64  54  68 SE12      30.06F
CAHOKIA*       CLOUDY    69  52  54 S12       30.06F
SPARTA*        PTCLDY    63  52  67 SE5       30.10R
$$

ILZ064>066-069>071-074>076-080>082-084>086-088>090-092>094-210300-
SOUTH-CENTRAL ILLINOIS

CITY           SKY/WX    TMP DP  RH WIND       PRES   REMARKS
CARBONDALE     PTCLDY    60  53  77 SW5       30.11S
EFFINGHAM*     CLOUDY    63  49  61 E7        30.12R
MARION         MOCLDY    64  51  62 SE7       30.11F
MT. VERNON     CLOUDY    64  50  60 SE6       30.11F
CENTRALIA*     CLOUDY    66  52  62 SE9       30.09S
SALEM*         CLOUDY    67  49  52 SE6       30.10F
METROPOLIS*    MOCLDY    56  52  84 CALM      30.13F
$$

ILZ067-068-072-073-078-083-087-091-210300-
SOUTHEAST ILLINOIS

CITY           SKY/WX    TMP DP  RH WIND       PRES   REMARKS
LAWRENCEVILLE  CLOUDY    60  51  72 SE9       30.13F
FLORA*         CLOUDY    59  50  72 S6        30.12S
FAIRFIELD*     CLOUDY    62  49  62 CALM      30.12S
HARRISBURG*    MOCLDY    58  50  74 CALM      30.13S
ROBINSON*      PTCLDY    58  49  72 SE7       30.13F
CARMI*         CLOUDY    58  51  77 S5        30.13R
$$

ABBREVIATIONS USED IN REMARKS
   TC - TEMPERATURE IN CELSIUS
  WCI - WIND CHILL INDEX
   HX - HEAT INDEX
  VSB - VISIBILITY
$$




USA.gov is the U.S. government's official web portal to all federal, state and local government web resources and services.